| time (UTC) | temp F | wind direction | speed MPH | gust MPH | rain 1hr in | rain 24hr in | rain mn in | humidity % | barometer mb |
| 20260904023815 | 78 | 88 | 1.0 | 3.0 | 0.00 | 1.40 | 1.40 | 54 | 1013.8 |
| 20260904020832 | 78 | 153 | 0.0 | 3.0 | 0.01 | 1.40 | 1.40 | 54 | 1014.0 |
| 20260904013815 | 77 | 119 | 0.0 | 2.0 | 0.01 | 1.40 | 1.40 | 52 | 1014.0 |
| 20260904010822 | 79 | 290 | 1.0 | 2.0 | 0.00 | 1.40 | 1.39 | 53 | 1013.9 |
| 20260904003835 | 79 | 290 | 0.0 | 1.0 | 0.00 | 1.40 | 1.39 | 52 | 1013.4 |
| 20260904000819 | 79 | 290 | 0.0 | 2.0 | 0.00 | 1.57 | 1.39 | 51 | 1013.4 |
| 20260903233832 | 80 | 294 | 0.0 | 0.0 | 0.00 | 1.57 | 1.39 | 51 | 1013.2 |
| 20260903230831 | 80 | 294 | 0.0 | 0.0 | 0.41 | 1.57 | 1.39 | 51 | 1013.1 |
| 20260903223816 | 81 | 294 | 2.0 | 9.0 | 0.41 | 1.57 | 1.39 | 50 | 1012.9 |
| 20260903220823 | 87 | 286 | 1.0 | 3.0 | 0.00 | 1.16 | 0.98 | 43 | 1012.7 |
| 20260903213823 | 87 | 245 | 0.0 | 2.0 | 0.00 | 1.16 | 0.98 | 41 | 1012.4 |
| 20260903210823 | 87 | 321 | 0.0 | 4.0 | 0.00 | 1.19 | 0.98 | 41 | 1012.0 |
| 20260903203833 | 87 | 273 | 1.0 | 4.0 | 0.00 | 1.19 | 0.98 | 41 | 1012.4 |
| 20260903200820 | 85 | 265 | 2.0 | 4.0 | 0.00 | 1.44 | 0.98 | 46 | 1012.6 |
| 20260903193823 | 82 | 11 | 0.0 | 2.0 | 0.00 | 1.44 | 0.98 | 50 | 1013.1 |
| 20260903190831 | 80 | 360 | 1.0 | 2.0 | 0.03 | 1.44 | 0.98 | 53 | 1013.4 |
| 20260903183814 | 79 | 22 | 1.0 | 3.0 | 0.80 | 1.44 | 0.98 | 52 | 1013.8 |
| 20260903180824 | 79 | 250 | 2.0 | 7.0 | 0.95 | 1.41 | 0.95 | 51 | 1014.1 |
| 20260903173833 | 84 | 223 | 5.0 | 12.0 | 0.18 | 0.64 | 0.18 | 48 | 1014.4 |
| 20260903170828 | 90 | 248 | 3.0 | 5.0 | 0.00 | 0.46 | 0.00 | 36 | 1013.9 |
| 20260903163853 | 89 | 119 | 2.0 | 6.0 | 0.00 | 0.46 | 0.00 | 36 | 1014.2 |
| 20260903160818 | 88 | 100 | 2.0 | 4.0 | 0.00 | 0.46 | 0.00 | 42 | 1014.4 |
| 20260903153829 | 88 | 86 | 2.0 | 6.0 | 0.00 | 0.46 | 0.00 | 39 | 1014.8 |
| 20260903150813 | 87 | 27 | 3.0 | 8.0 | 0.00 | 0.46 | 0.00 | 41 | 1014.8 |